User: anonymous   Login
Location: Doschendorf
(50.0069°N, 11.0602°E)
Time: 18:03:10
(UTC+00:00)
Language:

NOAA 12 - Orbit

View from above orbital plane
View from above orbital plane
View from above satellite
View from above satellite

Ground track
Ground track

The orbit data is extracted from the following two-line orbital elements,

1 21263U 91032A   21018.87706360 -.00000013  00000-0  12302-4 0  9995
2 21263  98.5051  28.5346 0014496  48.6333 311.6092 14.25930552543395
Epoch (UTC): 18 January 2021 21:02:58
Eccentricity: 0.0014496
inclination: 98.5051°
perigee height: 795 km
apogee height: 816 km
right ascension of ascending node: 28.5346°
argument of perigee: 48.6333°
revolutions per day: 14.25930552
mean anomaly at epoch: 311.6092°
orbit number at epoch: 54339

The dashed part of the orbit path shows where the satellite is in the earth's shadow,  

DLR